AMS (52745 NORAD) Tracking and Keplerian Element Data

This shows tracking and keplerian element data for the satellite.

Feedback or suggestion? Click here.




ElementValue
Catalog52745
NameAMS
Epoch Orbit710
Epoch Day192.73235036
Epoch Year2022
RAAN307.0172
Inclination97.5163
Eccentricity0.0011055
Argument of Perigee83.2234
Mean Anonmoly277.0254
Mean Motion15.12149367
Decay Rate1.55E-05
L11 52745U 22057P 22192.73235036 .00001550 00000+0 93558-4 0 9998
L22 52745 97.5163 307.0172 0011055 83.2234 277.0254 15.12149367 7104

Live tracking and technical data element details for AMS (NORAD 52745). AMS can be tracked NOW for your location showing map with azimuth and elevation plus other details from your city location.

Track the satellite on the map from your city or location and see movement details for azimuth, elevation, latitude, longitude, range, height, and movement on the map or in text.







IsCatalogInMostPopularTable: catalog: 52745, numindb: 3
Update: records affected: 1



GetName: 52745 AMS

Hit Count: updated at: Sun, 14 Aug 2022 01:33:46 GMT